Weather History for Le Mars, IA

Change the Weather History Date:

Sunday, February 3, 2013

  Actual Average Record
Temperature  
Mean Temperature 30 °F -  
Max Temperature 48 °F 27 °F 59 °F (2005)
Min Temperature 12 °F 6 °F -20 °F (1989)
Degree Days  
Heating Degree Days 35    
Moisture  
Dew Point 20 °F    
Average Humidity 68    
Maximum Humidity 87    
Minimum Humidity 40    
Precipitation  
Precipitation 0.00 in - - ()
Sea Level Pressure  
Sea Level Pressure 29.97 in    
Wind  
Wind Speed 11 mph (SW)    
Max Wind Speed 18 mph    
Max Gust Speed 24 mph    
Visibility 10 miles    
Events      
Averages and records for this station are not official NWS values.
T = Trace of Precipitation, MM = Missing Value Source: NWS Daily Summary

Daily Weather History Graph

Daily Weather History Graph

Search for Another Location

Airport:

Trip Planner

Search our weather history database for the weather conditions in past years. The results will help you decide how hot, cold, wet, or windy it might be!

Date:

Astronomy

Feb. 03, 2013 Rise Set
Actual Time 7:36 AM CST 5:41 PM CST
Civil Twilight 7:06 AM CST 6:10 PM CST
Nautical Twilight 6:33 AM CST 6:44 PM CST
Astronomical Twilight 6:00 AM CST 7:17 PM CST
Moon 1:06 AM CST (2/3) 11:18 AM CST (2/3)
Length of Visible Light 11h 03m
Length of Day
10h 04m
Waning Gibbous, 48% of the Moon is Illuminated
Feb 3
Waning Gibbous
Feb 10
New
Feb 17
First Quarter
Feb 25
Full
Mar 4
Last Quarter

Hourly Weather History & Observations

Time (CST) Temp. Windchill Dew Point Humidity Pressure Visibility Wind Dir Wind Speed Gust Speed Precip Events Conditions
12:15 AM 24.8 °F 11.1 °F 15.8 °F 69% 30.11 in 10.0 mi NNW 18.4 mph 23.0 mph N/A   Clear
12:35 AM 24.8 °F 11.1 °F 15.8 °F 69% 30.12 in 10.0 mi NNW 18.4 mph 24.2 mph N/A   Clear
12:55 AM 23.0 °F 9.6 °F 15.8 °F 74% 30.13 in 10.0 mi NNW 16.1 mph - N/A   Clear
1:35 AM 21.2 °F 6.8 °F 12.2 °F 68% 30.14 in 10.0 mi NNW 17.3 mph 23.0 mph N/A   Clear
1:55 AM 21.2 °F 8.3 °F 12.2 °F 68% 30.15 in 10.0 mi NNW 13.8 mph 19.6 mph N/A   Clear
2:15 AM 19.4 °F 6.0 °F 12.2 °F 74% 30.16 in 10.0 mi NW 13.8 mph 21.9 mph N/A   Clear
2:35 AM 19.4 °F 6.6 °F 12.2 °F 74% 30.17 in 10.0 mi NNW 12.7 mph 18.4 mph N/A   Clear
2:55 AM 19.4 °F 8.6 °F 10.4 °F 68% 30.16 in 10.0 mi NNW 9.2 mph - N/A   Clear
3:15 AM 17.6 °F 6.4 °F 10.4 °F 73% 30.16 in 10.0 mi NW 9.2 mph - N/A   Clear
3:35 AM 17.6 °F 6.4 °F 10.4 °F 73% 30.16 in 10.0 mi NNW 9.2 mph - N/A   Clear
3:55 AM 17.6 °F 6.4 °F 10.4 °F 73% 30.14 in 10.0 mi NW 9.2 mph - N/A   Clear
4:15 AM 17.6 °F 5.7 °F 10.4 °F 73% 30.15 in 10.0 mi NW 10.4 mph - N/A   Clear
4:35 AM 17.6 °F 5.7 °F 10.4 °F 73% 30.16 in 10.0 mi NW 10.4 mph - N/A   Clear
4:55 AM 15.8 °F 5.1 °F 8.6 °F 73% 30.17 in 10.0 mi WNW 8.1 mph - N/A   Clear
5:15 AM 15.8 °F 6.1 °F 8.6 °F 73% 30.17 in 10.0 mi NW 6.9 mph - N/A   Clear
5:35 AM 14.0 °F 8.2 °F 8.6 °F 79% 30.16 in 10.0 mi WNW 3.5 mph - N/A   Clear
6:15 AM 14.0 °F - 8.6 °F 79% 30.15 in 10.0 mi Calm Calm - N/A   Clear
6:35 AM 12.2 °F 6.1 °F 6.8 °F 79% 30.15 in 10.0 mi SW 3.5 mph - N/A   Clear
6:55 AM 17.6 °F 9.3 °F 8.6 °F 68% 30.14 in 10.0 mi WNW 5.8 mph - N/A   Mostly Cloudy
7:15 AM 17.6 °F - 8.6 °F 68% 30.13 in 10.0 mi Calm Calm - N/A   Overcast
7:35 AM 15.8 °F - 8.6 °F 73% 30.13 in 10.0 mi Calm Calm - N/A   Overcast
7:55 AM 17.6 °F - 10.4 °F 73% 30.12 in 10.0 mi Calm Calm - N/A   Overcast
8:15 AM 17.6 °F - 10.4 °F 73% 30.13 in 10.0 mi Calm Calm - N/A   Overcast
8:35 AM 19.4 °F 14.3 °F 10.4 °F 68% 30.12 in 10.0 mi SSW 3.5 mph - N/A   Overcast
8:55 AM 19.4 °F 9.5 °F 12.2 °F 74% 30.11 in 10.0 mi SSW 8.1 mph - N/A   Overcast
9:15 AM 19.4 °F 9.5 °F 12.2 °F 74% 30.10 in 10.0 mi SSW 8.1 mph - N/A   Overcast
9:35 AM 21.2 °F 13.6 °F 12.2 °F 68% 30.10 in 10.0 mi SSW 5.8 mph - N/A   Mostly Cloudy
9:55 AM 24.8 °F 15.3 °F 14.0 °F 64% 30.09 in 10.0 mi SSW 9.2 mph - N/A   Scattered Clouds
10:15 AM 26.6 °F 18.2 °F 15.8 °F 64% 30.09 in 10.0 mi SSW 8.1 mph - N/A   Clear
10:55 AM 28.4 °F 22.2 °F 17.6 °F 64% 30.08 in 10.0 mi SSW 5.8 mph - N/A   Clear
11:15 AM 30.2 °F 23.4 °F 17.6 °F 60% 30.06 in 10.0 mi South 6.9 mph - N/A   Clear
11:35 AM 30.2 °F 23.4 °F 19.4 °F 64% 30.04 in 10.0 mi South 6.9 mph - N/A   Clear
11:55 AM 32.0 °F 24.2 °F 19.4 °F 60% 30.02 in 10.0 mi South 9.2 mph - N/A   Clear
12:15 PM 33.8 °F 25.8 °F 21.2 °F 60% 30.00 in 10.0 mi South 10.4 mph - N/A   Clear
12:35 PM 35.6 °F 27.1 °F 23.0 °F 60% 29.98 in 10.0 mi South 12.7 mph - N/A   Clear
12:55 PM 35.6 °F 26.2 °F 24.8 °F 65% 29.96 in 10.0 mi South 15.0 mph - N/A   Clear
1:15 PM 37.4 °F 28.5 °F 26.6 °F 65% 29.94 in 10.0 mi South 15.0 mph 18.4 mph N/A   Clear
1:35 PM 39.2 °F 31.2 °F 26.6 °F 61% 29.93 in 10.0 mi South 13.8 mph - N/A   Clear
1:55 PM 44.6 °F 38.1 °F 24.8 °F 46% 29.90 in 10.0 mi SSW 13.8 mph 19.6 mph N/A   Clear
2:15 PM 44.6 °F 38.8 °F 24.8 °F 46% 29.89 in 10.0 mi SSW 11.5 mph - N/A   Clear
2:55 PM 48.2 °F - 24.8 °F 40% 29.86 in 10.0 mi SSW 11.5 mph - N/A   Clear
3:15 PM 48.2 °F - 26.6 °F 43% 29.85 in 10.0 mi SSW 11.5 mph - N/A   Clear
3:35 PM 48.2 °F - 26.6 °F 43% 29.84 in 10.0 mi SSW 10.4 mph 17.3 mph N/A   Clear
3:55 PM 48.2 °F - 26.6 °F 43% 29.83 in 10.0 mi SSW 12.7 mph - N/A   Clear
4:15 PM 48.2 °F - 26.6 °F 43% 29.83 in 10.0 mi SSW 10.4 mph - N/A   Clear
4:55 PM 46.4 °F 41.9 °F 28.4 °F 50% 29.80 in 10.0 mi South 9.2 mph - N/A   Clear
5:15 PM 44.6 °F 39.2 °F 28.4 °F 53% 29.79 in 10.0 mi South 10.4 mph - N/A   Clear
5:55 PM 41.0 °F 34.3 °F 30.2 °F 65% 29.78 in 10.0 mi South 11.5 mph - N/A   Clear
6:15 PM 39.2 °F 33.0 °F 30.2 °F 70% 29.78 in 10.0 mi South 9.2 mph - N/A   Clear
6:35 PM 39.2 °F 32.5 °F 28.4 °F 65% 29.77 in 10.0 mi South 10.4 mph - N/A   Clear
6:55 PM 37.4 °F 30.3 °F 28.4 °F 70% 29.76 in 10.0 mi South 10.4 mph - N/A   Clear
7:15 PM 37.4 °F 30.3 °F 28.4 °F 70% 29.77 in 10.0 mi SSW 10.4 mph - N/A   Clear
7:35 PM 35.6 °F - 28.4 °F 75% 29.77 in 10.0 mi Calm Calm - N/A   Clear
7:55 PM 35.6 °F 29.9 °F 28.4 °F 75% 29.77 in 10.0 mi South 6.9 mph - N/A   Clear
8:15 PM 35.6 °F 30.7 °F 28.4 °F 75% 29.77 in 10.0 mi SSW 5.8 mph - N/A   Clear
8:35 PM 35.6 °F 32.8 °F 28.4 °F 75% 29.76 in 10.0 mi South 3.5 mph - N/A   Clear
8:55 PM 35.6 °F 30.7 °F 28.4 °F 75% 29.75 in 10.0 mi South 5.8 mph - N/A   Clear
9:15 PM 35.6 °F 30.7 °F 28.4 °F 75% 29.75 in 10.0 mi South 5.8 mph - N/A   Clear
9:35 PM 35.6 °F 31.7 °F 28.4 °F 75% 29.75 in 10.0 mi South 4.6 mph - N/A   Clear
9:55 PM 35.6 °F 32.8 °F 28.4 °F 75% 29.75 in 10.0 mi South 3.5 mph - N/A   Clear
10:15 PM 35.6 °F 31.7 °F 28.4 °F 75% 29.74 in 10.0 mi SSW 4.6 mph - N/A   Scattered Clouds
10:55 PM 33.8 °F 27.7 °F 28.4 °F 81% 29.76 in 10.0 mi North 6.9 mph - N/A   Scattered Clouds
11:15 PM 33.8 °F - 28.4 °F 81% 29.75 in 10.0 mi Calm Calm - N/A   Scattered Clouds
11:35 PM 32.0 °F 27.5 °F 28.4 °F 87% 29.76 in 10.0 mi North 4.6 mph - N/A   Clear
11:55 PM 33.8 °F 24.3 °F 28.4 °F 81% 29.77 in 10.0 mi NNE 13.8 mph 17.3 mph N/A   Scattered Clouds